Regional Weather Roundup
Issued by NWS

Home | Current Version | Previous Version | Text Only | Print | Product List | Glossary On
Versions: 1 2 3 4 5 6 7 8 9 10 11 12 13 14 15 16 17 18 19 20 21 22 23 24 25 26 27 28 29 30 31 32 33 34 35 36 37 38 39 40 41 42 43 44 45 46 47 48 49 50
000
ASUS45 KPSR 021310
RWRAZ

ARIZONA HOURLY REGIONAL WEATHER ROUNDUP
NATIONAL WEATHER SERVICE PHOENIX AZ
600 AM MST TUE JUN 02 2015

NOTE: FAIR INDICATES FEW OR NO CLOUDS BELOW 12,000 FEET WITH NO
SIGNIFICANT WEATHER AND/OR OBSTRUCTIONS TO VISIBILITY.

AZZ001>003-036-021400-
NORTHWEST ARIZONA

CITY           SKY/WX    TMP DP  RH WIND       PRES   REMARKS
BULLHEAD CITY  CLEAR     81  32  17 S9        29.82S
KINGMAN        CLEAR     63  23  21 VRB3      29.97R
$$

AZZ004>008-015-016-018-021400-
NORTH CENTRAL ARIZONA

CITY           SKY/WX    TMP DP  RH WIND       PRES   REMARKS
GRAND CANYON   PTCLDY    38  26  62 CALM      30.19R
WILLIAMS       CLEAR     57  25  28 S9        30.25S
PRESCOTT       CLEAR     57  30  35 S5        30.10S
FLAGSTAFF      PTCLDY    51  24  34 W5        30.21R
PAYSON         CLEAR     64  23  20 CALM      30.14S
PAGE           CLEAR     69  21  16 SW6       30.01R
$$

AZZ009>014-017-021400-
NORTHEAST ARIZONA

CITY           SKY/WX    TMP DP  RH WIND       PRES   REMARKS
WINSLOW        PTCLDY    53  25  33 SE6       30.12R
SAINT JOHNS    MOCLDY    50  24  36 CALM      30.17R
WINDOW ROCK    CLEAR     45  27  49 CALM      30.23R
SHOW LOW       PTCLDY    57  21  24 S7        30.22R
$$

AZZ023-021400-
GREATER PHOENIX AREA

CITY           SKY/WX    TMP DP  RH WIND       PRES   REMARKS
PHOENIX        PTCLDY    78  38  23 E8        29.87R
BUCKEYE        CLEAR     66  28  24 NE6       29.88R
GLENDALE       PTCLDY    73  37  27 N3        29.89
LUKE AFB       CLEAR     71  38  30 NW3       29.87R
DEER VALLEY    CLEAR     76  31  19 E7        29.90R
SCOTTSDALE     CLEAR     76  34  21 CALM      29.91R
MESA-FALCON    PTCLDY    77  34  20 CALM      29.90R
MESA-GATEWAY   PTCLDY    70  39  32 E8        29.92R
$$

AZZ027-028-021400-
SOUTHWEST MARICOPA COUNTY AND PINAL COUNTY

CITY           SKY/WX    TMP DP  RH WIND       PRES   REMARKS
CASA GRANDE    CLEAR     70  37  30 CALM      29.90S
GILA BEND      FAIR      71  38  30 S6        29.87R
$$

AZZ503-504-507>509-021400-
SOUTHEAST ARIZONA

CITY           SKY/WX    TMP DP  RH WIND       PRES   REMARKS
TUCSON         CLEAR     72  31  22 SE12      30.02R
DAVIS-MONTHAN  CLEAR     70  29  21 SE12      30.00R
RYAN FIELD       N/A     70  34  26 E8        30.00
NOGALES        CLEAR     60  34  37 NE3       30.10R
SIERRA VISTA   CLEAR     67  29  24 SE1       30.15R
DOUGLAS        CLEAR     61  26  26 NW5       30.12R
SAFFORD        CLEAR     61  21  21 SE5       30.02R
$$

AZZ020-021-025-026-031-021400-
SOUTHWEST ARIZONA

CITY           SKY/WX    TMP DP  RH WIND       PRES   REMARKS
YUMA           CLEAR     74  31  20 CALM      29.85R
$$

CAZ031-033-041-043-047-048-061-021400-
SOUTHERN CALIFORNIA

CITY           SKY/WX    TMP DP  RH WIND       PRES   REMARKS
DOWNTOWN L.A.  CLEAR     61  55  81 CALM      29.98S
L.A. AIRPORT   PTCLDY    59  57  93 CALM      29.99R
SAN DIEGO      CLOUDY    63  55  75 CALM      30.01R
BURBANK        CLEAR     60  54  80 SE3       29.99R
ONTARIO        PTCLDY    58  52  80 CALM      29.99R
RIVERSIDE      CLEAR     58  53  84 CALM      30.00R
PALM SPRINGS   CLEAR     72  41  32 N5        29.85R
EL CENTRO NAS  PTCLDY    73  36  25 CALM      29.85R HAZE
IMPERIAL       CLEAR     72  41  32 NW6       29.83R HAZE
BLYTHE         CLEAR     67  40  37 NW5       29.83R
NEEDLES        CLEAR     75  29  18 W5        29.84R
$$

NVZ020-UTZ003-021400-
SOUTHERN NEVADA-UTAH

CITY           SKY/WX    TMP DP  RH WIND       PRES   REMARKS
LAS VEGAS      PTCLDY    73  33  23 S16G24    29.82R
SALT LAKE CITY MOCLDY    60  45  57 CALM      29.93R
$$

NMZ009-TXZ055-021400-
NEW MEXICO-WEST TEXAS

CITY           SKY/WX    TMP DP  RH WIND       PRES   REMARKS
ALBUQUERQUE    MOSUNNY   61  40  45 CALM      30.17R
EL PASO        MOSUNNY   75  46  35 SE9       30.05R
$$


........................KEY........................
SKY/WX - SKY CONDITION/WEATHER
TMP    - TEMPERATURE IN FAHRENHEIT
DP     - DEW POINT IN FAHRENHEIT
RH     - RELATIVE HUMIDITY IN PERCENT
WIND   - DIRECTION AND SPEED IN MILES PER HOUR (MPH)
VRB    - VARIABLE WIND DIRECTION
PRES   - MEAN SEA LEVEL PRESSURE IN INCHES OF MERCURY
         F - FALLING PRESSURE   R - RISING PRESSURE
         S - STEADY PRESSURE
VSB    - VISIBILITY IN MILES
HX     - HEAT INDEX IN FAHRENHEIT
WCI    - WIND CHILL INDEX IN FAHRENHEIT
TC     - TEMPERATURE IN CELSIUS WHICH IS ALSO KNOWN AS
         TEMPERATURE IN CENTIGRADE
AFB    - AIR FORCE BASE
         LUKE AFB IS LUKE AIR FORCE BASE
         DAVIS-MONTHAN IS DAVIS-MONTHAN AIR FORCE BASE
NAS    - NAVAL AIR STATION
         EL CENTRO NAS IS EL CENTRO NAVAL AIR STATION
N/A    - NOT AVAILABLE




USA.gov is the U.S. government's official web portal to all federal, state and local government web resources and services.